Location: ??????????
(41.2581°N, 22.8006°E)
Time: 00:19:12
(UTC+00:00)

GEOS 3 Rocket - Pass Details

Date: 21 March 2026
Orbit: 767 x 846 km, 115.0° (Epoch: 13 April)

Event Time Altitude Azimuth Distance (km) Brightness Sun altitude
Rises 02:16:54 0° 45° (NE) 3,410 8.0 -25.3°
Reaches altitude 10° 02:19:32 10° 57° (ENE) 2,467 7.2 -24.8°
Maximum altitude 02:24:12 30° 117° (ESE) 1,468 5.3 -24.0°
Enters shadow 02:28:34 11° 176° (S) 2,351 5.8 -23.3°
